Weather History for Seward, AK

Change the Weather History Date:

Sunday, February 19, 2012

  Actual Average Record
Temperature  
Mean Temperature 36 °F -  
Max Temperature 39 °F 31 °F 46 °F (1998)
Min Temperature 33 °F 21 °F 1 °F (1974)
Degree Days  
Heating Degree Days 29    
Moisture  
Dew Point 29 °F    
Average Humidity 81    
Maximum Humidity 92    
Minimum Humidity 57    
Precipitation  
Precipitation 0.23 in - - ()
Sea Level Pressure  
Sea Level Pressure 29.42 in    
Wind  
Wind Speed 6 mph (SSW)    
Max Wind Speed 18 mph    
Max Gust Speed 23 mph    
Visibility 5 miles    
Events Snow    
Averages and records for this station are not official NWS values.
T = Trace of Precipitation, MM = Missing Value Source: NWS Daily Summary

Daily Weather History Graph

Daily Weather History Graph

Search for Another Location

Airport:

Trip Planner

Search our weather history database for the weather conditions in past years. The results will help you decide how hot, cold, wet, or windy it might be!

Date:

Astronomy

Feb. 19, 2012 Rise Set
Actual Time 8:25 AM AKST 5:58 PM AKST
Civil Twilight 7:42 AM AKST 6:41 PM AKST
Nautical Twilight 6:53 AM AKST 7:30 PM AKST
Astronomical Twilight 6:05 AM AKST 8:18 PM AKST
Moon 7:16 AM AKST (2/19) 3:51 PM AKST (2/19)
Length of Visible Light 10h 59m
Length of Day
9h 32m
Waning Crescent, 5% of the Moon is Illuminated
Feb 19
Waning Crescent
Feb 21
New
Feb 29
First Quarter
Mar 8
Full
Mar 14
Last Quarter

Hourly Weather History & Observations

Time (AKST) Temp. Windchill Dew Point Humidity Pressure Visibility Wind Dir Wind Speed Gust Speed Precip Events Conditions
12:53 AM 33.1 °F 26.9 °F 24.1 °F 70% 29.53 in 10.0 mi NNW 6.9 mph - N/A   Overcast
1:53 AM 33.1 °F 26.1 °F 23.0 °F 66% 29.53 in 10.0 mi North 8.1 mph - N/A   Overcast
3:53 AM 33.1 °F 24.4 °F 23.0 °F 66% 29.52 in 10.0 mi North 11.5 mph - N/A   Mostly Cloudy
4:53 AM 33.1 °F 23.9 °F 23.0 °F 66% 29.51 in 10.0 mi NNW 12.7 mph - N/A   Overcast
5:53 AM 33.1 °F 24.4 °F 23.0 °F 66% 29.49 in 10.0 mi NNW 11.5 mph - N/A   Overcast
6:53 AM 35.1 °F 28.6 °F 24.1 °F 64% 29.50 in 10.0 mi North 8.1 mph - N/A   Overcast
7:53 AM 35.1 °F 25.9 °F 24.1 °F 64% 29.49 in 10.0 mi NNW 13.8 mph - N/A   Overcast
8:53 AM 35.1 °F 27.9 °F 25.0 °F 67% 29.48 in 10.0 mi NNW 9.2 mph - N/A   Overcast
9:53 AM 36.0 °F 29.6 °F 25.0 °F 64% 29.47 in 10.0 mi NNW 8.1 mph - N/A   Overcast
10:53 AM 37.9 °F 32.1 °F 25.0 °F 60% 29.46 in 10.0 mi NNW 8.1 mph - N/A   Overcast
11:53 AM 39.0 °F 35.7 °F 25.0 °F 57% 29.46 in 10.0 mi Variable 4.6 mph - N/A   Overcast
12:53 PM 39.0 °F - 26.1 °F 60% 29.47 in 10.0 mi Calm Calm - N/A   Overcast
1:53 PM 37.0 °F 34.5 °F 28.0 °F 70% 29.45 in 10.0 mi ESE 3.5 mph - 0.00 in   Overcast
2:53 PM 35.1 °F 30.1 °F 30.0 °F 82% 29.45 in 9.0 mi SSE 5.8 mph - 0.00 in Snow Light Snow
3:22 PM 33.8 °F - 30.2 °F 87% 29.44 in 2.5 mi Calm Calm - 0.00 in Snow Light Snow
3:31 PM 33.8 °F 30.8 °F 30.2 °F 87% 29.44 in 2.0 mi South 3.5 mph - 0.01 in Snow Light Snow
3:46 PM 33.8 °F - 30.2 °F 87% 29.44 in 3.0 mi Calm Calm - 0.01 in Snow Light Snow
3:53 PM 34.0 °F 31.0 °F 30.9 °F 89% 29.44 in 2.5 mi SSW 3.5 mph - 0.01 in Snow Light Snow
4:10 PM 33.8 °F - 30.2 °F 87% 29.44 in 2.5 mi Calm Calm - 0.01 in Snow Light Snow
4:32 PM 33.8 °F - 30.2 °F 87% 29.44 in 4.0 mi Calm Calm - 0.01 in Snow Light Snow
4:53 PM 34.0 °F - 30.9 °F 89% 29.43 in 4.0 mi Calm Calm - 0.01 in Snow Light Snow
5:04 PM 33.8 °F - 30.2 °F 87% 29.43 in 2.5 mi Calm Calm - 0.00 in Snow Light Snow
5:29 PM 33.8 °F - 30.2 °F 87% 29.42 in 1.8 mi Calm Calm - 0.01 in Snow Light Snow
5:36 PM 33.8 °F - 30.2 °F 87% 29.41 in 1.8 mi Calm Calm - 0.01 in Snow Light Snow
5:43 PM 33.8 °F - 30.2 °F 87% 29.41 in 3.0 mi Calm Calm - 0.01 in Snow Light Snow
5:53 PM 34.0 °F - 30.0 °F 85% 29.42 in 5.0 mi Calm Calm - 0.01 in Snow Light Snow
6:05 PM 33.8 °F - 30.2 °F 87% 29.41 in 4.0 mi Calm Calm - 0.01 in Snow Light Snow
6:27 PM 33.8 °F - 30.2 °F 87% 29.41 in 2.5 mi Calm Calm - 0.01 in Snow Light Snow
6:31 PM 33.8 °F - 30.2 °F 87% 29.41 in 1.8 mi Calm Calm - 0.01 in Snow Light Snow
6:44 PM 33.8 °F - 30.2 °F 87% 29.41 in 2.0 mi Calm Calm - 0.02 in Snow Light Snow
6:50 PM 33.8 °F - 30.2 °F 87% 29.40 in 1.8 mi Calm Calm - 0.02 in Snow Light Snow
6:53 PM 33.1 °F - 30.9 °F 92% 29.40 in 1.8 mi Calm Calm - 0.03 in Snow Light Snow
7:00 PM 33.8 °F - 30.2 °F 87% 29.40 in 1.2 mi Calm Calm - 0.00 in Snow Light Snow
7:08 PM 33.8 °F - 30.2 °F 87% 29.40 in 1.0 mi Calm Calm - 0.01 in Snow Light Snow
7:18 PM 33.8 °F - 30.2 °F 87% 29.40 in 1.0 mi Calm Calm - 0.02 in Snow Light Snow
7:43 PM 33.8 °F 29.6 °F 30.2 °F 87% 29.40 in 0.8 mi SSE 4.6 mph - 0.05 in Snow Light Snow
7:53 PM 33.1 °F 24.4 °F 30.9 °F 92% 29.40 in 1.0 mi South 11.5 mph 17.3 mph 0.07 in Snow Light Snow
8:00 PM 33.8 °F 23.5 °F 30.2 °F 87% 29.40 in 1.5 mi South 16.1 mph 23.0 mph 0.00 in Snow Light Snow
8:12 PM 33.8 °F 27.0 °F 30.2 °F 87% 29.40 in 3.0 mi South 8.1 mph 16.1 mph 0.01 in Snow Light Snow
8:30 PM 33.8 °F 25.3 °F 30.2 °F 87% 29.39 in 2.5 mi SSW 11.5 mph - 0.02 in Snow Light Snow
8:53 PM 34.0 °F 26.6 °F 30.9 °F 89% 29.39 in 4.0 mi South 9.2 mph - 0.03 in Snow Light Snow
9:04 PM 33.8 °F 28.6 °F 30.2 °F 87% 29.39 in 2.5 mi South 5.8 mph - 0.01 in Snow Light Snow
9:22 PM 33.8 °F 29.6 °F 30.2 °F 87% 29.38 in 2.5 mi Variable 4.6 mph - 0.02 in Snow Light Snow
9:53 PM 34.0 °F 28.8 °F 30.9 °F 89% 29.36 in 2.5 mi South 5.8 mph - 0.04 in Snow Light Snow
10:05 PM 33.8 °F 25.8 °F 30.2 °F 87% 29.35 in 1.5 mi SSE 10.4 mph - 0.00 in Snow Light Snow
10:43 PM 33.8 °F 23.2 °F 30.2 °F 87% 29.33 in 3.0 mi South 17.3 mph 23.0 mph 0.03 in Snow Light Snow
10:53 PM 34.0 °F 23.0 °F 30.0 °F 85% 29.33 in 3.0 mi South 18.4 mph - 0.03 in Snow Light Snow
11:02 PM 33.8 °F 23.5 °F 30.2 °F 87% 29.32 in 3.0 mi SSW 16.1 mph - 0.00 in Snow Light Snow
11:46 PM 35.6 °F 25.9 °F 30.2 °F 81% 29.30 in 8.0 mi South 16.1 mph 21.9 mph 0.00 in Snow Light Snow
11:53 PM 35.1 °F 25.2 °F 30.0 °F 82% 29.30 in 9.0 mi SSW 16.1 mph - 0.00 in Snow Light Snow